Regional Weather Roundup
Issued by NWS Upton, NY

Current Version | Previous Version | Text Only | Print | Product List | Glossary On
Versions: 1 2 3 4 5 6 7 8 9 10 11 12 13 14 15 16 17 18 19 20 21 22 23 24 25 26 27 28 29 30 31 32 33 34 35 36 37 38 39 40 41 42 43 44 45 46 47 48 49 50
000
ASUS41 KOKX 071804
RWROKX

REGIONAL WEATHER ROUNDUP
NATIONAL WEATHER SERVICE NEW YORK NY
100 PM EST SUN FEB 07 2016

NOTE: "FAIR" INDICATES FEW OR NO CLOUDS BELOW 12,000 FEET WITH NO
SIGNIFICANT WEATHER AND/OR OBSTRUCTIONS TO VISIBILITY.

NYZ071-072-176-178-NJZ106-104-071900-
NEW YORK CITY METRO AREA


CITY           SKY/WX    TMP DP  RH WIND       PRES   REMARKS
CENTRAL PARK   MOSUNNY   45  19  35 VRB3      30.14F
LAGUARDIA APRT CLOUDY    46  22  38 NE3       30.12F
KENNEDY INTL   CLOUDY    44  22  41 SE5       30.14F
NEWARK/LIBERTY PTSUNNY   45  21  38 SE5       30.12F
BRNX BOT. GARD   N/A     46  23  39 NE2       30.12F
TETERBORO      MOSUNNY   45  21  38 SE7       30.11F
$$

NYZ177-179-078>081-071900-
LONG ISLAND NEW YORK

CITY           SKY/WX    TMP DP  RH WIND       PRES   REMARKS
FARMINGDALE    PTSUNNY   44  22  41 SE3       30.13F
ISLIP          CLOUDY    42  26  53 SE7       30.12F
SHIRLEY        PTSUNNY   41  27  57 SE6       30.15F
RIVERHEAD        N/A     34  27  75 W1        30.21S
WESTHAMPTON    CLOUDY    42  28  57 VRB6      30.16F
EAST HAMPTON   SUNNY     41  28  60 VRB5      30.15F
MONTAUK POINT    N/A     42  30  62 SE6       30.17S
$$

NYZ052-065-067-071900-
HUDSON VALLEY

CITY           SKY/WX    TMP DP  RH WIND       PRES   REMARKS
WHITE PLAINS   SUNNY     45  18  34 CALM      30.09F
NEWBURGH       SUNNY     45  19  36 VRB5      30.10F
MONTGOMERY     SUNNY     46  21  37 SE3       30.08F
POUGHKEEPSIE   SUNNY     47  17  30 CALM      30.10F
ALBANY         MOSUNNY   44  19  36 N8        30.14F
$$

NJZ001-105-106-008-010-013-015-019>022-104-071900-
NEW JERSEY

CITY           SKY/WX    TMP DP  RH WIND       PRES   REMARKS
NEWARK/LIBERTY PTSUNNY   45  21  38 SE5       30.12F
TETERBORO      MOSUNNY   45  21  38 SE7       30.11F
CALDWELL       MOSUNNY   45  18  34 CALM      30.12F
MORRISTOWN     MOSUNNY   45  19  36 SE5       30.12F
SOMERVILLE     MOSUNNY   45  22  40 VRB3      30.09F
SUSSEX         SUNNY     45  20  36 VRB3      30.08F
ANDOVER          N/A     45  18  34 CALM      30.09F
TRENTON        CLOUDY    44  22  41 E5        30.10F
MILLVILLE      CLOUDY    44  24  45 NE6       30.11F
ATLANTIC CITY  CLOUDY    44  25  47 E5        30.12F
WRIGHTSTOWN    PTSUNNY   40  30  67 NE2       30.09F
TOMS RIVER     CLOUDY    43  25  49 NE3       30.12F
BELMAR         PTSUNNY   43  21  42 CALM      30.11F
$$

PAZ047>061-062-071-071900-
EASTERN PENNSYLVANIA

CITY           SKY/WX    TMP DP  RH WIND       PRES   REMARKS
PHILADELPHIA   CLOUDY    45  23  42 E5        30.12F
ALLENTOWN      MOSUNNY   46  21  37 CALM      30.10F
SCRANTON       SUNNY     43  21  41 CALM      30.05F
$$

CTZ002-004>006-009-010-012-RIZ004-006-007-MAZ004-011-015-071900-
SOUTHERN NEW ENGLAND
 IN CT

CITY           SKY/WX    TMP DP  RH WIND       PRES   REMARKS
BRADLEY INTL   MOSUNNY   40  22  48 E5        30.11S
HARTFORD       SUNNY     43  23  45 SE5       30.14S
DANBURY        SUNNY     44  20  38 E5        30.11F
WTRBRY/OXFORD  SUNNY     45  18  33 CALM      30.11S
BRIDGEPORT     MOSUNNY   39  28  64 S8        30.13S WCI  33
MERIDEN        SUNNY     45  21  38 VRB3      30.13R
NEW HAVEN      PTSUNNY   38  28  67 S8        30.13S WCI  32
CHESTER        FAIR      45  21  39 E6        30.13S
GROTON         SUNNY     39  32  76 S9        30.15R WCI  33
WILLIMANTIC    SUNNY     44  23  43 CALM      30.14R

 IN RI

CITY           SKY/WX    TMP DP  RH WIND       PRES   REMARKS
PROVIDENCE     MOSUNNY   41  26  55 VRB3      30.16R
BLOCK ISLAND   CLOUDY    39  30  70 S3        30.16F
WESTERLY       SUNNY     41  28  60 S10       30.16R

 IN MA

CITY           SKY/WX    TMP DP  RH WIND       PRES   REMARKS
BOSTON         MOSUNNY   44  22  41 VRB3      30.14R
WORCESTER      SUNNY     42  17  36 NW3       30.08F
WESTFIELD      SUNNY     44  21  40 E6        30.09F
PROVINCETOWN   SUNNY     41  26  55 CALM      30.17R
NANTUCKET      CLOUDY    42  31  64 SW6       30.17S
$$

ANZ330-335-338-340-345-350-353-355-071900-
COASTAL MARINE OBSERVATIONS


STATION/POSITION TIME  SKY/WX   TEMP    WIND        PRES    VSBY  WAVE
                                AIR SEA DIR/SP/G                  HT/PER
                 (UTC)          (F)     (DEG/KT/KT) (MB)    (MI)  (FT/S)
NY HARB ENTRANCE 1650            39 43  320/  4/  6 1021.2          1/ 9
4S FIRE IS       NOT AVBL
20S FIRE ISLAND  1650            40 43     CALM     1022.1          2/11
GREAT SOUTH BAY  NOT AVBL
23SW MTP         1750            41 45  240/  2/  4 1021.0          2/11
HUDSON CANYON    1650            44 50              1021.6          2/ 9
KINGS POINT      1700            41 39  220/  3/  4 1020.4
EXECUTION ROCKS  NOT AVBL
CENTRAL LI SOUND 1730            38     210/  6/  6   N/A           1
EASTERN LI SOUND 1700            43 43  240/  2/  4   N/A
ROBBINS REEF     1700            42     170/  1/  2 1020.1
$$


>>>>>>>>>>>>>>>>>>>>>>>>>>>> KEY <<<<<<<<<<<<<<<<<<<<<<<<<<<
>                                                          <
>     SKY/WX - SKY CONDITION/PRESENT WEATHER               <
>     TMP    - TEMPERATURE IN FAHRENHEIT                   <
>     DP     - DEWPOINT IN FAHRENHEIT                      <
>     RH     - RELATIVE HUMIDITY IN PERCENT                <
>     WIND   - DIRECTION AND SPEED IN MPH                  <
>     PRES   - MEAN SEA LEVEL PRESSURE IN INCHES OF HG     <
>     WCI    - WIND CHILL INDEX                            <
>     VSB    - VISIBILITY IN MILES                         <
>     HX     - HEAT INDEX                                  <
>     TC     - TEMPERATURE IN CELSIUS                      <
>     VRB    - VARIABLE WIND DIRECTION                     <
>                                                          <
>>>>>>>>>>>>>>>>>>>>>>>>>>>> KEY <<<<<<<<<<<<<<<<<<<<<<<<<<<





USA.gov is the U.S. government's official web portal to all federal, state and local government web resources and services.